TimeCDT,TemperatureF,Dew PointF,Humidity,Sea Level PressureIn,VisibilityMPH,Wind Direction,Wind SpeedMPH,Gust SpeedMPH,PrecipitationIn,Events,Conditions,WindDirDegrees,DateUTC
12:58 AM,53.1,44.1,71,30.20,10.0,NE,6.9,-,N/A,,Clear,50,2013-04-21 05:58:00
1:55 AM,51.8,42.8,71,30.18,10.0,ENE,6.9,-,N/A,,Clear,60,2013-04-21 06:55:00
2:58 AM,51.6,42.6,71,30.18,10.0,NE,4.6,-,N/A,,Clear,50,2013-04-21 07:58:00
3:58 AM,50.7,42.1,72,30.18,10.0,ENE,8.1,-,N/A,,Clear,60,2013-04-21 08:58:00
4:58 AM,49.1,42.8,79,30.19,10.0,NE,5.8,-,N/A,,Clear,40,2013-04-21 09:58:00
5:58 AM,48.4,41.9,78,30.19,10.0,NE,6.9,-,N/A,,Clear,50,2013-04-21 10:58:00
6:58 AM,48.9,41.7,76,30.20,10.0,NE,6.9,-,N/A,,Clear,50,2013-04-21 11:58:00
7:58 AM,53.6,42.1,65,30.20,10.0,NE,8.1,-,N/A,,Clear,50,2013-04-21 12:58:00
8:58 AM,59.7,44.8,58,30.21,10.0,NE,8.1,-,N/A,,Clear,50,2013-04-21 13:58:00
9:58 AM,65.1,41.7,42,30.22,10.0,ENE,9.2,-,N/A,,Clear,70,2013-04-21 14:58:00
10:58 AM,68.5,41.7,38,30.22,10.0,East,13.8,-,N/A,,Clear,80,2013-04-21 15:58:00
11:58 AM,70.3,41.5,35,30.22,10.0,ESE,8.1,-,N/A,,Clear,110,2013-04-21 16:58:00
12:58 PM,71.8,39.0,30,30.20,10.0,East,11.5,16.1,N/A,,Clear,80,2013-04-21 17:58:00
1:58 PM,70.9,49.6,47,30.18,10.0,SE,12.7,-,N/A,,Clear,140,2013-04-21 18:58:00
2:58 PM,70.5,50.7,49,30.16,10.0,SSE,11.5,-,N/A,,Clear,150,2013-04-21 19:58:00
3:58 PM,69.8,51.1,51,30.14,10.0,SSE,10.4,-,N/A,,Clear,150,2013-04-21 20:58:00
4:58 PM,69.3,53.4,57,30.13,10.0,SSE,10.4,-,N/A,,Clear,160,2013-04-21 21:58:00
5:58 PM,68.0,53.4,60,30.14,10.0,SSE,9.2,-,N/A,,Clear,150,2013-04-21 22:58:00
6:58 PM,66.6,51.6,59,30.14,10.0,SE,5.8,-,N/A,,Clear,140,2013-04-21 23:58:00
7:58 PM,65.1,52.2,63,30.15,10.0,SSE,3.5,-,N/A,,Clear,150,2013-04-22 00:58:00
8:58 PM,63.3,52.5,68,30.16,10.0,Calm,Calm,-,N/A,,Clear,0,2013-04-22 01:58:00
9:58 PM,61.2,55.4,81,30.17,10.0,North,1.2,-,N/A,,Clear,350,2013-04-22 02:58:00
10:58 PM,58.3,54.0,86,30.16,10.0,North,1.2,-,N/A,,Clear,10,2013-04-22 03:58:00
11:58 PM,58.1,53.8,86,30.15,10.0,North,3.5,-,N/A,,Clear,10,2013-04-22 04:58:00